[[{"header":{"parameterUnit":"m.s-1","parameterCategory":1,"la1":30.2991,"la2":30.254,"lo1":-89.0895,"lo2":-89.0444,"dy":0.0017,"dx":0.0017,"nx":28,"ny":28,"refTime":"2025-08-18T21:00:00:Z","depth":0,"parameterNumber":2,"parameterNumberName":"U-component_of_WINDS"},"data":[0,0,0,0,0,0,0,0,0,0,0,0,0,0,0,0,0,0,0,0,0,0,0,0,0,0,0,0,0,0,0,0,0,0,0,0,0,0,0,0,0,0,0,0,0,0,0,0,0,0,0,0,0,0,0,0,0,0,0.3788,0.3788,0,0.3785,0.3785,0.3785,0.3784,0.3784,0.3785,0.3785,0.378,0.378,0.378,0,0,0,0,0,0,0,0,0,0,0,0,0,0.3792,0.3792,0.3788,0.3788,0.3788,0.3785,0.3785,0.3785,0.3784,0.3784,0.3785,0.3785,0.378,0.378,0.378,0,0,0,0,0,0,0,0,0,0,0,0,0,0.379,0.3792,0.3788,0.3787,0.3787,0.3785,0.3785,0.3785,0.3784,0.3784,0.3785,0.3785,0.378,0.378,0.378,0.3778,0,0,0.3779,0.3779,0,0,0,0,0,0,0,0,0.379,0.379,0.3788,0.3788,0.3787,0.3785,0.3785,0.3783,0.3784,0.3786,0.3785,0.3785,0.3782,0.3782,0.3781,0.3778,0.3778,0.3779,0.3779,0.3779,0.3779,0,0,0,0,0,0,0,0.3791,0.379,0.3787,0.3788,0.3787,0.3787,0.3787,0.3785,0.3784,0.3785,0.3785,0.3785,0.3782,0.3781,0.3781,0.3778,0.3779,0.3779,0.3779,0.3779,0.3774,0.3774,0,0,0,0,0,0,0.3791,0.379,0.3787,0.3787,0.3789,0.3787,0.3787,0.3786,0.3784,0.3783,0.3785,0.3785,0.3781,0.3781,0.3781,0.3779,0.3779,0.3779,0.3779,0.3774,0.3774,0.3774,0,0,0,0,0,0,0.3791,0.3791,0.3787,0.3789,0.3788,0.3787,0.3786,0.3786,0.3785,0.3783,0.3783,0.3785,0.3781,0.3781,0.3779,0.3779,0.3779,0.3779,0.3774,0.3774,0.3774,0.3775,0,0,0,0,0,0,0.3791,0.3791,0.379,0.3789,0.3788,0.3786,0.3786,0.3786,0.3785,0.3785,0.3783,0.3782,0.3781,0.378,0.3779,0.3778,0.3779,0.3775,0.3774,0.3774,0.3775,0.3775,0.3775,0,0,0,0,0,0.3791,0.379,0.379,0.379,0.3787,0.3786,0.3786,0.3785,0.3785,0.3784,0.3783,0.3783,0.3779,0.3779,0.3779,0.3778,0.3775,0.3774,0.3774,0.3775,0.3775,0.3775,0,0,0,0,0,0,0.379,0.379,0.379,0.3788,0.3787,0.3786,0.3785,0.3785,0.3783,0.3783,0.3782,0.3782,0.378,0.3779,0.3779,0.3777,0.3777,0.3777,0.3777,0.3777,0.3778,0.3777,0.3778,0,0,0,0,0,0.379,0.3789,0.3789,0.3787,0.3787,0.3786,0.3785,0.3785,0.3784,0.3783,0.3782,0.3781,0.378,0.3779,0.3777,0.3775,0.3775,0.3775,0.3775,0.3775,0.3775,0.3774,0.3774,0.3774,0.3774,0.3774,0,0,0.3789,0.3789,0.3788,0.3787,0.3786,0.3785,0.3785,0.3784,0.3784,0.3783,0.3781,0.3781,0.3779,0.3778,0.3777,0.3777,0.3775,0.3775,0.3775,0.3774,0.3774,0.3774,0.3774,0.3774,0.3774,0.3774,0,0,0.3787,0.3786,0.3785,0.3785,0.3784,0.3784,0.3784,0.3783,0.3783,0.3781,0.3781,0.378,0.3778,0.3777,0.3776,0.3776,0.3775,0.3775,0.3775,0.3775,0.3775,0.3775,0.3774,0.3774,0.3775,0.3775,0.3775,0,0.3785,0.3784,0.3784,0.3784,0.3783,0.3784,0.3783,0.3782,0.3781,0.3781,0.3781,0.3779,0.3778,0.3776,0.3776,0.3776,0.3775,0.3775,0.3775,0.3775,0.3775,0.3774,0.3774,0.3775,0.3775,0.3775,0.3775,0,0.3783,0.3782,0.3781,0.3781,0.378,0.3779,0.378,0.3779,0.378,0.3779,0.3778,0.3778,0.3776,0.3776,0.3776,0.3775,0.3775,0.3775,0.3775,0.3775,0.3774,0.3774,0.3775,0.3775,0.3775,0.3775,0,0,0.3778,0.3779,0.3779,0.3779,0.3779,0.3779,0.3778,0.3778,0.3777,0.3777,0.3776,0.3775,0.3776,0.3775,0.3775,0.3775,0.3774,0.3775,0.3775,0.3774,0.3774,0.3773,0.3773,0.3774,0.3774,0.3774,0.3774,0,0.3776,0.3775,0.3776,0.3775,0.3774,0.3776,0.3775,0.3775,0.3775,0.3775,0.3775,0.3774,0.3775,0.3775,0.3775,0.3774,0.3774,0.3775,0.3774,0.3774,0.3773,0.3773,0.3772,0.3772,0.3774,0.3774,0.3774,0,0.3772,0.3773,0.3772,0.3773,0.3773,0.3772,0.3772,0.3772,0.3773,0.3773,0.3773,0.3773,0.3773,0.3774,0.3773,0.3774,0.3773,0.3774,0.3774,0.3773,0.3773,0.3772,0.3772,0.3771,0.3774,0.3774,0.3774,0,0.3769,0.3769,0.3769,0.3769,0.377,0.377,0.3771,0.3771,0.3771,0.3772,0.3772,0.3772,0.3772,0.3772,0.3772,0.3773,0.3772,0.3772,0.3772,0.3772,0.3771,0.3771,0.377,0.3772,0.3772,0.3772,0.3772,0,0.3766,0.3765,0.3768,0.3767,0.3767,0.3768,0.3768,0.3768,0.3769,0.3769,0.377,0.377,0.3771,0.3771,0.3772,0.3772,0.3772,0.3772,0.3772,0.3771,0.3771,0.3771,0.377,0.3772,0.3772,0.3772,0.3772,0,0.3761,0.3763,0.3763,0.3765,0.3765,0.3765,0.3766,0.3766,0.3767,0.3767,0.3767,0.3769,0.3769,0.377,0.377,0.3771,0.377,0.3771,0.377,0.377,0.377,0.377,0.3768,0.3768,0.377,0.377,0.377,0,0.3759,0.3759,0.3761,0.3761,0.3762,0.3762,0.3763,0.3765,0.3765,0.3766,0.3766,0.3767,0.3767,0.3768,0.3769,0.3769,0.3769,0.3769,0.3769,0.3769,0.3769,0.3769,0.3769,0.3768,0.3768,0.3768,0.3768,0,0.3754,0.3755,0.3756,0.3757,0.3758,0.3759,0.376,0.376,0.3763,0.3763,0.3764,0.3764,0.3765,0.3766,0.3767,0.3767,0.3768,0.3768,0.3768,0.3767,0.3767,0.3767,0.3769,0.3768,0.3768,0.3768,0.3768,0.3768,0.375,0.375,0.3752,0.3753,0.3755,0.3756,0.3756,0.3758,0.3759,0.376,0.3761,0.3762,0.3763,0.3765,0.3766,0.3766,0.3767,0.3766,0.3766,0.3766,0.3766,0.3768,0.3767,0.3767,0.3767,0.3767,0.3767,0,0.3746,0.3747,0.3748,0.375,0.3751,0.3753,0.3755,0.3755,0.3756,0.3758,0.3759,0.376,0.3761,0.3763,0.3764,0.3764,0.3765,0.3764,0.3764,0.3764,0.3766,0.3766,0.3764,0.3764,0.3764,0.3764,0.3764,0.3764,0.3743,0.3743,0.3745,0.3746,0.3748,0.3749,0.375,0.3751,0.3753,0.3754,0.3756,0.3757,0.3759,0.3761,0.3762,0.3762,0.3762,0.3762,0.3763,0.3764,0.3764,0.3764,0.3764,0.3762,0.3762,0.3761,0.3761,0.3761]},{"header":{"parameterUnit":"m.s-1","parameterCategory":1,"la1":30.2991,"la2":30.254,"lo1":-89.0895,"lo2":-89.0444,"dy":0.0017,"dx":0.0017,"nx":28,"ny":28,"refTime":"2025-08-18T21:00:00:Z","depth":0,"parameterNumber":3,"parameterNumberName":"V-component_of_WINDS"},"data":[0,0,0,0,0,0,0,0,0,0,0,0,0,0,0,0,0,0,0,0,0,0,0,0,0,0,0,0,0,0,0,0,0,0,0,0,0,0,0,0,0,0,0,0,0,0,0,0,0,0,0,0,0,0,0,0,0,0,-2.7303,-2.7304,0,-2.7371,-2.7372,-2.7373,-2.733,-2.7328,-2.7326,-2.7324,-2.7392,-2.7395,-2.7399,0,0,0,0,0,0,0,0,0,0,0,0,0,-2.7135,-2.7138,-2.7303,-2.7304,-2.7305,-2.7371,-2.7372,-2.7373,-2.733,-2.7328,-2.7325,-2.7323,-2.7391,-2.7395,-2.7399,0,0,0,0,0,0,0,0,0,0,0,0,0,-2.7206,-2.7139,-2.7303,-2.7291,-2.7291,-2.7371,-2.7372,-2.7373,-2.7331,-2.7328,-2.7325,-2.7322,-2.7389,-2.7395,-2.74,-2.7494,0,0,-2.7417,-2.7419,0,0,0,0,0,0,0,0,-2.7202,-2.7212,-2.7292,-2.7292,-2.7292,-2.7339,-2.7338,-2.7414,-2.7331,-2.7316,-2.7324,-2.732,-2.7377,-2.7383,-2.7402,-2.7498,-2.7501,-2.7417,-2.7421,-2.7423,-2.7425,0,0,0,0,0,0,0,-2.7197,-2.7209,-2.733,-2.7294,-2.7293,-2.7283,-2.7289,-2.7352,-2.7362,-2.7317,-2.7314,-2.7323,-2.7376,-2.7397,-2.7404,-2.7502,-2.7417,-2.7422,-2.7426,-2.7428,-2.7678,-2.7682,0,0,0,0,0,0,-2.7193,-2.7205,-2.7328,-2.7332,-2.7239,-2.7288,-2.7296,-2.7327,-2.7361,-2.7364,-2.7325,-2.732,-2.7389,-2.7397,-2.7406,-2.7519,-2.7423,-2.7428,-2.7431,-2.7675,-2.7679,-2.7683,0,0,0,0,0,0,-2.719,-2.7205,-2.7325,-2.7268,-2.7282,-2.7294,-2.733,-2.733,-2.7351,-2.7368,-2.7369,-2.7345,-2.7387,-2.7398,-2.7473,-2.7521,-2.7431,-2.7436,-2.7671,-2.7676,-2.7681,-2.7746,0,0,0,0,0,0,-2.7185,-2.7204,-2.724,-2.7269,-2.7286,-2.7392,-2.7333,-2.7333,-2.7361,-2.7355,-2.7387,-2.7389,-2.7386,-2.7465,-2.7479,-2.7527,-2.744,-2.7667,-2.7673,-2.7679,-2.774,-2.7753,-2.7764,0,0,0,0,0,-2.7179,-2.7255,-2.7242,-2.7257,-2.7331,-2.7395,-2.7404,-2.7399,-2.7365,-2.7401,-2.7412,-2.7388,-2.7513,-2.7473,-2.7488,-2.7539,-2.7664,-2.7672,-2.7679,-2.7734,-2.775,-2.7764,0,0,0,0,0,0,-2.723,-2.7258,-2.7244,-2.7332,-2.7361,-2.7387,-2.7433,-2.7416,-2.7455,-2.7448,-2.744,-2.7448,-2.7526,-2.754,-2.7494,-2.7632,-2.7583,-2.7594,-2.762,-2.7636,-2.7647,-2.7642,-2.7445,0,0,0,0,0,-2.7252,-2.7301,-2.7323,-2.7398,-2.7414,-2.7421,-2.7448,-2.7442,-2.7472,-2.7484,-2.75,-2.753,-2.7576,-2.7606,-2.765,-2.7742,-2.7748,-2.7784,-2.7796,-2.7806,-2.7815,-2.7865,-2.7882,-2.7707,-2.7707,-2.7707,0,0,-2.7297,-2.7318,-2.735,-2.7409,-2.7431,-2.7482,-2.7432,-2.7488,-2.7526,-2.7492,-2.7565,-2.7578,-2.761,-2.7694,-2.7732,-2.7708,-2.7865,-2.7815,-2.7823,-2.7827,-2.7875,-2.7891,-2.7906,-2.7712,-2.7712,-2.7711,0,0,-2.7404,-2.7426,-2.7491,-2.7514,-2.7549,-2.7553,-2.7569,-2.7598,-2.7606,-2.7678,-2.7654,-2.7699,-2.7778,-2.7803,-2.7825,-2.7944,-2.7923,-2.7958,-2.8021,-2.807,-2.8084,-2.8096,-2.8138,-2.8154,-2.7967,-2.7967,-2.7968,0,-2.7456,-2.7532,-2.7526,-2.7585,-2.7612,-2.7585,-2.7651,-2.7674,-2.772,-2.7739,-2.7712,-2.7812,-2.7831,-2.7921,-2.795,-2.7969,-2.7987,-2.7954,-2.8082,-2.8094,-2.8106,-2.8146,-2.8162,-2.7971,-2.7971,-2.7971,-2.797,0,-2.7594,-2.7648,-2.7696,-2.7743,-2.7775,-2.7837,-2.784,-2.7873,-2.7865,-2.7872,-2.7946,-2.7969,-2.8017,-2.8038,-2.8029,-2.8127,-2.8111,-2.8083,-2.8034,-2.8126,-2.8164,-2.818,-2.7977,-2.7976,-2.7975,-2.7974,0,0,-2.7735,-2.7779,-2.7797,-2.7818,-2.7854,-2.7895,-2.7956,-2.8004,-2.8033,-2.8066,-2.8116,-2.8185,-2.816,-2.8186,-2.818,-2.8223,-2.8315,-2.819,-2.819,-2.8212,-2.8425,-2.8445,-2.8463,-2.8302,-2.8305,-2.8307,-2.8422,0,-2.7846,-2.7953,-2.7949,-2.8049,-2.8098,-2.8074,-2.8127,-2.8155,-2.8163,-2.8206,-2.8215,-2.8264,-2.8227,-2.8243,-2.8284,-2.8295,-2.8358,-2.8287,-2.8349,-2.8351,-2.8342,-2.8483,-2.8505,-2.8612,-2.8437,-2.8439,-2.8441,0,-2.7989,-2.8028,-2.8133,-2.8162,-2.8183,-2.8231,-2.8274,-2.8316,-2.8347,-2.835,-2.838,-2.8367,-2.8429,-2.8378,-2.8463,-2.8414,-2.844,-2.8449,-2.8453,-2.8459,-2.8402,-2.8493,-2.8646,-2.8663,-2.8464,-2.8462,-2.8461,0,-2.8082,-2.8161,-2.8234,-2.8253,-2.8289,-2.8323,-2.834,-2.8368,-2.8397,-2.8435,-2.8454,-2.8498,-2.8523,-2.8557,-2.8557,-2.852,-2.8643,-2.8592,-2.8647,-2.8647,-2.8674,-2.8672,-2.8834,-2.869,-2.869,-2.8689,-2.8689,0,-2.8206,-2.8271,-2.8276,-2.8321,-2.8393,-2.8389,-2.846,-2.8474,-2.8499,-2.8546,-2.8527,-2.8571,-2.8568,-2.8613,-2.8613,-2.8683,-2.8694,-2.8699,-2.8698,-2.8701,-2.87,-2.8717,-2.871,-2.8694,-2.8693,-2.8692,-2.8691,0,-2.8323,-2.8329,-2.8407,-2.8435,-2.8444,-2.8496,-2.852,-2.8562,-2.857,-2.8629,-2.8643,-2.8654,-2.8706,-2.8709,-2.8768,-2.8769,-2.8854,-2.8845,-2.8844,-2.8842,-2.8898,-2.8893,-2.9076,-2.91,-2.894,-2.8942,-2.8943,0,-2.8401,-2.8451,-2.8485,-2.8516,-2.8535,-2.8584,-2.8613,-2.8611,-2.8643,-2.8682,-2.872,-2.877,-2.881,-2.8894,-2.8907,-2.8953,-2.8945,-2.9006,-2.8952,-2.8953,-2.8946,-2.8944,-2.8949,-2.9017,-2.9019,-2.902,-2.9021,0,-2.8541,-2.8542,-2.8586,-2.8631,-2.8668,-2.8703,-2.8736,-2.8762,-2.8763,-2.88,-2.8853,-2.8884,-2.8946,-2.8996,-2.9041,-2.9057,-2.904,-2.9038,-2.9054,-2.9057,-2.9054,-2.9057,-2.8873,-2.9034,-2.9033,-2.9032,-2.9031,-2.9031,-2.8641,-2.8684,-2.8716,-2.8765,-2.879,-2.8822,-2.8863,-2.8876,-2.8921,-2.8971,-2.8967,-2.9026,-2.9056,-2.9114,-2.9134,-2.918,-2.9159,-2.9182,-2.9187,-2.9193,-2.9199,-2.9047,-2.9188,-2.9188,-2.9188,-2.9187,-2.9187,0,-2.878,-2.8799,-2.8845,-2.8892,-2.8932,-2.8912,-2.8948,-2.8982,-2.9035,-2.9065,-2.9105,-2.9166,-2.9215,-2.9232,-2.9279,-2.9313,-2.9306,-2.9325,-2.9323,-2.9327,-2.9215,-2.9197,-2.933,-2.933,-2.933,-2.933,-2.933,-2.933,-2.8857,-2.8929,-2.8934,-2.9018,-2.9037,-2.9095,-2.9117,-2.9146,-2.917,-2.924,-2.928,-2.9292,-2.9317,-2.9366,-2.941,-2.9413,-2.9432,-2.9455,-2.9455,-2.935,-2.9335,-2.9321,-2.9305,-2.9459,-2.9459,-2.9564,-2.9565,-2.9566]}]]